Simultaneous Nadir Overpasses (SNOs) Predictions

Prediction of SNOs between GOES-14 and NOAA-20 Satellite Orbit:

Table of predicted SNOs for the next 14.0 days since TLE Epoch: 1/2/2021
Index Date Time (GOES-14) GOES-14 Lat,Lon NOAA-20 Lat,Lon Distance(km) Time Diff (sec)
1 01/03/2021 08:32:46 -0.08,-104.36 0.41,-106.62 256.91 80
2 01/04/2021 08:11:22 -0.08,-104.36 -0.61,-102.09 259.38 80
3 01/05/2021 20:33:17 0.08,-104.07 -0.66,-107.37 376.27 80
4 01/06/2021 20:17:12 0.08,-104.07 0.36,-102.84 140.41 80
5 01/08/2021 08:36:22 -0.08,-104.36 0.74,-108.13 428.82 80
6 01/09/2021 08:17:36 -0.07,-104.36 -0.22,-103.58 87.58 80
7 01/11/2021 20:20:47 0.07,-104.06 -0.02,-104.34 32.42 80
8 01/12/2021 20:04:43 0.06,-104.06 1.00, -99.81 484.15 80
9 01/14/2021 08:23:52 -0.06,-104.35 0.09,-105.10 85.06 80
10 01/15/2021 08:05:07 -0.06,-104.35 -0.92,-100.57 431.41 80
